This demonstration page uses our WeatherBlox Daily Observations layout. Learn more.

Left ArrowRight Arrow

Hourly Observations for September 24, 2021

Temp ( °F °C ) Dew Point ( °F °C ) Humidity (%) Winds ( mph kmh ) Pressure ( in mb ) Visibility ( mi km ) Precip ( " mm )
12:53 am 00:53 Clear 45 7.2 44 6.7 97 97 N N/A 30.05 1018 10 16 N/A
1:53 am 01:53 Clear 44 6.7 43 6.1 96 96 N N/A 30.04 1017 10 16 N/A
2:53 am 02:53 Clear 43 6.1 42 5.6 97 97 N N/A 30.05 1018 10 16 N/A
3:53 am 03:53 Clear 42 5.6 42 5.6 100 100 N N/A 30.06 1018 10 16 N/A
4:53 am 04:53 Clear 41 5 41 5 100 100 N N/A 30.07 1018 10 16 N/A
5:53 am 05:53 Clear 41 5 41 5 100 100 N N/A 30.09 1019 10 16 N/A
6:53 am 06:53 Clear with Mist and Fog 40 4.4 39 3.9 97 97 N N/A 30.10 1019 5 8 N/A
7:53 am 07:53 Sunny 42 5.6 42 5.6 100 100 N N/A 30.11 1020 10 16 N/A
8:53 am 08:53 Sunny 50 10 48 8.9 93 93 N N/A 30.12 1020 10 16 N/A
9:53 am 09:53 Sunny 56 13.3 50 10 81 81 VRB 3 6 30.13 1020 10 16 N/A
10:53 am 10:53 Sunny 62 16.7 50 10 65 65 VRB 3 6 30.14 1021 10 16 N/A
11:53 am 11:53 Sunny 67 19.4 50 10 55 55 VRB 3 6 30.13 1020 10 16 N/A
12:53 pm 12:53 Sunny 71 21.7 51 10.6 49 49 undefined N/A 30.11 1020 10 16 N/A
1:53 pm 13:53 Sunny 73 22.8 49 9.4 43 43 VRB 7 11 30.10 1019 10 16 N/A
2:53 pm 14:53 Sunny 74 23.3 47 8.3 38 38 SW 7 11 30.08 1019 10 16 N/A
3:53 pm 15:53 Sunny 74 23.3 47 8.3 38 38 VRB 7 11 30.06 1018 10 16 N/A
4:53 pm 16:53 Sunny 74 23.3 48 8.9 40 40 VRB 3 6 30.05 1018 10 16 N/A
5:53 pm 17:53 Sunny 73 22.8 49 9.4 43 43 VRB 5 7 30.04 1017 10 16 N/A
6:53 pm 18:53 Sunny 67 19.4 51 10.6 57 57 VRB 5 7 30.05 1018 10 16 N/A
7:53 pm 19:53 Clear 58 14.4 53 11.7 84 84 N N/A 30.06 1018 10 16 N/A
8:53 pm 20:53 Clear 56 13.3 52 11.1 87 87 N N/A 30.07 1018 10 16 N/A
9:53 pm 21:53 Clear 55 12.8 51 10.6 87 87 N N/A 30.06 1018 10 16 N/A
10:53 pm 22:53 Clear 54 12.2 51 10.6 90 90 N N/A 30.06 1018 10 16 N/A
11:53 pm 23:53 Clear 53 11.7 51 10.6 93 93 N N/A 30.04 1017 10 16 N/A

Powered by AerisWeather